FENGYUN 1C DEB

Satellite information

Favourite Embed

Satellite Type and Status

DEBRISIN ORBIT

Key statistics

Satellite FENGYUN 1C DEB at a glance.

Uptime

9553

Days in orbit

Revolutions

≈ 14.2

Per day

Orbit

SSO

Sun Synchronous Orbit

Inclination

98.6

Latest

Satellite identification and parameters

Extended collection of information and parameters for FENGYUN 1C DEB.

Object identification

Identified? True

Debris? True

Object name: FENGYUN 1C DEB

International designator: 1999-025PT

Object number (NORAD): 30066

Object ID (CCSDS): 30066

Country: PEOPLES REPUBLIC OF CHINA (PRC)

Current information (Y/N): Y

RCS size: SMALL

Orbital parameters

Period: 101.483 minutes

Inclination: 98.6208 deg

SMA: 7207.002 km

Apoapsis: 914.049 km

Periapsis: 743.685 km

RAAN: 180.2191 deg

Eccentricy: 0.0118193

Argument of periapsis: 7.303 deg

Mean anomaly: 112.6618 deg

Mean motion: 14.18962082 rev/day

Mean motion (dot): 0.00000244 rev/day2

B* drag term: 0.00012853 1/REarth

Two-line elements (TLE)

Creation date: July 4, 2025, 6:39 p.m.

Reference frame: TEME

Reference center: EARTH

Epoch: July 4, 2025, 1:57 p.m. UTC

TLE line 0: 0 FENGYUN 1C DEB

TLE line 1: 1 30066U 99025PT 25185.58192451 .00000244 00000-0 12853-3 0 9998

TLE line 2: 2 30066 98.6208 180.2191 0118193 7.3030 112.6618 14.18962082955519

Live tracking on map

Real-time ground track for satellite FENGYUN 1C DEB.

In-orbit conjunctions

A list of the most updated potential collisions computed for object FENGYUN 1C DEB.

Target Orbit TCA Probability of collision Miss distance Type
FENGYUN 1C DEB SSO 2025-01-18 12:11:09 0.000229572 163.0 (m) DEBRIS
CZ-4 DEB SSO 2024-09-27 00:52:06 0.0001728515 806.0 (m) DEBRIS
CZ-6A R/B LEO 2024-06-27 17:24:12 0.0003309211 340.0 (m) ROCKET BODY

Associated space launch

Chinese polar orbiting meteorological satellite

FENGYUN 1C DEB was lifted into orbit during the mission ‘Long March 4B | Feng Yun 1C’, on board a Long March 4B space rocket.

The launch took place on May 10, 1999, 1:33 a.m. from Launch Complex 7.

For more information about the launch, click the button.

Launch to space Long March 4B | Feng Yun 1C
Long March 4B | Feng Yun 1C

Agency: N/A

Status: Launch Successful

Launch date: May 10, 1999, 1:33 a.m. UTC

Rocket: Long March 4B

Launch pad: Launch Complex 7

Location: Taiyuan Satellite Launch Center, People's Republic of China

...

Latest news about this satellite

There are no fresh news available about this satellite. Check back as we update our databases every day.


Newsletter sign-up

Weekly statistics, charts and insights to help you stay on top of the space industry.